{"data":{"norad_id":56386,"intl_designator":"2023-061N","name":"STARLINK-5836","alt_names":[],"object_type":"PAYLOAD","status":"ACTIVE","operator":null,"country":"US","launch_date":"2023-05-04","launch_site_code":"AFETR","launch_vehicle":null,"mission":null,"orbit_class":"UNKNOWN","rcs_meters":null,"size_class":null,"mass_kg":null,"dimensions":null,"purposes":["comms"],"wikipedia_slug":null,"has_3d_model":false,"image_url":null,"decayed_at":null,"tle_current":{"epoch":"2026-05-24T23:24:46.177344Z","epoch_age_seconds":76878,"freshness":"FRESH","line1":"1 56386U 23061N   26144.97553446  .00000377  00000+0  23213-4 0  9991","line2":"2 56386  43.0021 127.3227 0001079 260.4288  99.6442 15.27577487168418","mean_motion":15.27577487,"eccentricity":0.0001079,"inclination_deg":43.0021,"raan_deg":127.3227,"arg_perigee_deg":260.4288,"mean_anomaly_deg":99.6442,"bstar":2.3213e-5,"rev_number":16841,"period_min":94.266903790786,"perigee_km":482.31629808432,"apogee_km":483.79694366771,"semimajor_km":6861.193620876,"source":"CELESTRAK","updated_at":"2026-05-25T13:38:18.012794Z"}}}